This demonstration page uses our WeatherBlox Daily Observations layout. Learn more.

41.55636, -103.73856

Hourly Observations for October 15, 2016

Temp ( °F °C ) Dew Point ( °F °C ) Humidity (%) Winds ( mph kmh ) Pressure ( in mb ) Visibility ( mi km ) Precip ( " mm )
12:53 am 00:53 Clear 54 12.2 30 -1.1 40 40 undefined N/A 29.65 1004 10 16.0934 0 0
1:53 am 01:53 Clear 49 9.4 30 -1.1 48 48 Calm 29.67 1005 10 16.0934 0 0
2:53 am 02:53 Clear 48 8.9 30 -1.1 50 50 NNW 8 13 29.66 1005 10 16.0934 0 0
3:53 am 03:53 Clear 46 7.8 31 -0.6 56 56 NW 6 9 29.66 1004 10 16.0934 0 0
4:53 am 04:53 Clear 49 9.4 32 0 52 52 NNW 3 6 29.67 1005 10 16.0934 0 0
5:53 am 05:53 Clear 48 8.9 34 1.1 58 58 Calm 29.71 1006 10 16.0934 0 0
6:53 am 06:53 Clear 54 12.2 33 0.6 45 45 E 5 7 29.74 1007 10 16.0934 0 0
7:53 am 07:53 Sunny 49 9.4 35 1.7 59 59 W 5 7 29.81 1009 10 16.0934 0 0
8:53 am 08:53 Sunny 57 13.9 36 2.2 45 45 Calm 29.8 1009 10 16.0934 0 0
9:53 am 09:53 Sunny 60 15.6 37 2.8 42 42 E 8 13 29.82 1010 10 16.0934 0 0
10:53 am 10:53 Sunny 63 17.2 36 2.2 37 37 ESE 12 19 29.81 1009 10 16.0934 0 0
11:53 am 11:53 Sunny 67 19.4 39 3.9 36 36 ESE 8 13 29.79 1009 10 16.0934 0 0
12:53 pm 12:53 Sunny 72 22.2 37 2.8 28 28 SE 6 9 29.76 1008 10 16.0934 0 0
1:53 pm 13:53 Sunny 76 24.4 35 1.7 23 23 VRB 5 7 29.73 1007 10 16.0934 0 0
2:53 pm 14:53 Sunny 75 23.9 35 1.7 23 23 undefined N/A 29.74 1007 10 16.0934 0 0
3:53 pm 15:53 Sunny 74 23.3 36 2.2 25 25 SE 7 11 29.75 1008 10 16.0934 0 0
4:53 pm 16:53 Mostly Sunny 72 22.2 38 3.3 29 29 SE 8 13 29.75 1007 10 16.0934 0 0
5:53 pm 17:53 Sunny 68 20 39 3.9 35 35 E 5 7 29.76 1008 10 16.0934 0 0
6:53 pm 18:53 Clear 61 16.1 38 3.3 43 43 E 6 9 29.77 1008 10 16.0934 0 0
7:53 pm 19:53 Clear 57 13.9 38 3.3 49 49 undefined N/A 29.81 1010 10 16.0934 0 0
8:53 pm 20:53 Clear 54 12.2 38 3.3 55 55 E 7 11 29.79 1009 10 16.0934 0 0
9:53 pm 21:53 Clear 51 10.6 38 3.3 61 61 ESE 8 13 29.78 1009 10 16.0934 0 0
10:53 pm 22:53 Clear 50 10 38 3.3 63 63 undefined N/A 29.76 1008 10 16.0934 0 0
11:53 pm 23:53 Clear 49 9.4 38 3.3 66 66 E 8 13 29.74 1007 10 16.0934 0 0

Powered by AerisWeather